weather.gov     
National Weather Service

Terminal Aerodrome Forecast
NWS Homepage
This page is being discontinued on March 12, 2014.
The same data is available at this site. Please update your bookmarks.
Thank you, and we apologize for the inconvenience.
Please send an email to SR-SRH.Webmaster@noaa.gov with any concerns.


Current Version
Previous Version:    01  02  03  04  05  06  07  08  09  10  11  12  13  14  15  16  17  18  19  20  21  22  23  24  25  26  27  28  29  30  
   31  32  33  34  35  36  37  38  39  
[Printable]
685
FTUS41 KBTV 020500
TAFMPV
TAF
KMPV 020520Z 0206/0306 00000KT 6SM BR SCT025 OVC035
     FM020700 00000KT 3SM BR SCT003 OVC028
      TEMPO 0207/0211 1SM BR BKN004
     FM021300 00000KT 6SM BR SCT012 OVC035
     FM021600 VRB03KT P6SM BKN040
     FM022000 13004KT P6SM SCT200=


U.S. Dept. of Commerce
NOAA National Weather Service
1325 East West Highway
Silver Spring, MD 20910
E-mail: w-nws.webmaster@noaa.gov
Page last modified: May 16, 2007
NATIONAL WEATHER SERVICE: for Safety, for Work, for Fun - FOR LIFE